Tracking 19854 objects as of 21-Sep-2019
HD Live streaming from Space Station
objects crossing your sky now

TITAN 3C TRANSTAGE DEB

Track TITAN 3C TRANSTAGE DEB now!
10-day predictions


NORAD ID: 1642
Int'l Code: 1965-082D
Perigee: 621.5 km
Apogee: 656.9 km
Inclination: 32.1 °
Period: 97.4 minutes
Semi major axis: 7010 km
RCS: 2.2943 m2 (large)
Launch date: October 15, 1965
Source: United States (US)
Launch site: AIR FORCE EASTERN TEST RANGE (AFETR)

Note: This is SATELLITE DEBRIS
aabbcc
Your satellite tracking list
Your tracking list is empty




NASA's NSSDC Master Catalog

Two Line Element Set (TLE):
1  1642U 65082D   19263.88715634  .00000111  00000-0  87402-5 0  9996
2  1642  32.0948  62.2039 0025242 116.7199 243.6037 14.79131707893692
Source of the keplerian elements: AFSPC